Location: Antioch Baptist Church
(32.6696°N, 85.7327°W)
Time: 12:19:34
(UTC+00:00)

Atlas Centaur 2 - Pass Details

Date: 14 July 2020
Orbit: 459 x 1310 km, 30.4° (Epoch: 08 August)

Event Time Altitude Azimuth Distance (km) Brightness Sun altitude
Rises 02:50:28 0° 265° (W) 2,903 5.6 -21.0°
Reaches altitude 10° 02:53:12 10° 247° (WSW) 2,132 4.5 -21.4°
Enters shadow 02:56:42 19° 203° (SSW) 1,758 3.6 -21.9°
